Вернуться в каталог

STARLINK-5981

АктивенСвязьSSO
NORAD 56325·PAYLOAD·🇺🇸 United States

Запущен Apr 27, 2023 с Vandenberg Space Force Base

Loading…

Ближайшие Пролёты (ближайшие 24 часа)

TLE

СвежийSource: CelesTrak SupGP

Эпоха: Sep 14, 2026, 20:41 UTC

1 56325C 23058J   26257.86229167  .00310860  00000+0  18921-1 0  2578
2 56325  97.2850 251.9593 0001749  89.7352  79.9466 15.10349413    16

Отслеживайте STARLINK-5981 в реальном времени с AllMySat

Download on the App Store